Temperature
25 26 26 25 25 25 25 25 24 25 25 26 25 25 25 24 23 23 22 21 20 19 19 18 18 17 17 17 17 17 17 16 16 16 16 15 15 15 15 14 14 14 14 14
25 26 26 26 26 26 25 26 25 25 25 26 27 26 25 24 23 22 22 21 20 19 19 18 18 18 17 17 17 17 17 16 16 16 16 15 15 15 15 14 14 14 14 14
25 26 25 25 26 26 26 26 26 25 25 26 26 26 25 24 23 22 22 21 20 19 19 19 18 18 18 17 17 17 17 16 16 16 16 15 15 14 14 14 14 14 14 13
24 25 23 26 28 27 26 26 27 26 26 26 26 25 25 24 23 23 22 21 20 20 19 19 19 18 18 17 17 17 16 16 16 16 15 15 15 14 14 14 14 14 13 13
24 23 24 26 27 27 26 25 27 26 26 26 25 25 24 23 23 23 22 21 21 20 20 19 19 18 18 17 17 17 16 16 16 16 15 15 15 15 14 14 14 13 13 13
24 23 23 25 26 27 26 24 26 26 26 25 25 23 23 23 23 22 22 21 20 20 19 19 19 18 18 17 17 17 17 16 16 16 15 15 15 15 14 14 14 13 13 13
23 23 24 25 26 26 24 24 26 25 25 25 24 23 23 23 22 21 21 21 20 20 19 19 19 18 18 17 17 17 17 16 16 15 15 15 15 14 14 14 13 13 13 13
24 23 23 25 25 25 24 25 25 24 24 24 23 23 23 22 21 21 20 20 19 19 19 19 18 18 18 17 17 16 16 16 15 15 15 15 14 14 14 13 13 13 12 12
24 24 24 24 24 24 24 24 24 23 23 23 23 22 22 21 21 20 20 19 19 19 18 18 18 18 17 17 17 16 16 16 15 15 15 14 14 14 13 13 13 12 12 12
24 24 24 24 23 23 23 23 22 22 22 22 22 22 21 20 20 19 19 19 18 18 18 17 17 17 17 17 16 16 16 15 15 15 14 14 14 13 13 13 13 12 12 12
23 23 23 23 22 22 22 22 22 21 21 21 21 21 20 20 19 19 18 18 18 18 17 17 17 17 16 16 16 15 15 15 14 14 14 14 13 13 13 13 13 12 12 12
22 23 23 22 21 21 21 21 21 21 20 20 20 20 20 19 19 18 18 18 17 17 17 17 16 16 16 16 15 15 14 14 14 14 13 13 13 13 13 12 12 12 12 11
22 21 21 21 20 20 20 20 20 20 20 20 20 19 19 19 18 18 17 17 17 17 16 16 16 16 15 15 15 14 14 14 13 13 13 13 13 13 12 12 12 12 11 11
20 20 20 20 19 19 19 19 19 19 19 19 19 19 18 18 18 17 17 17 16 16 16 16 16 15 15 15 14 14 14 13 13 13 13 13 12 12 12 12 12 11 11 11
19 19 19 19 18 18 18 18 18 18 18 18 18 18 18 17 17 17 16 16 16 15 15 15 15 15 15 14 14 14 13 13 13 13 12 12 12 12 11 11 11 11 11 11
18 18 18 17 17 17 17 17 17 17 17 17 17 17 17 16 16 16 16 16 15 15 15 15 15 15 14 14 14 13 13 13 13 12 12 12 11 11 11 11 10 10 10 10
17 17 17 17 17 17 17 17 17 17 16 16 16 16 16 16 15 15 15 15 15 14 14 14 14 14 14 14 14 13 13 12 12 12 12 11 11 10 10 10 10 10 10 9
16 16 16 16 16 16 16 16 16 16 15 15 15 15 15 15 15 14 14 14 14 14 13 14 14 14 13 13 13 13 12 12 11 11 11 11 10 10 10 9 9 9 9 9
15 15 15 15 15 15 15 15 15 15 15 15 14 14 14 14 14 14 13 13 13 13 13 13 13 12 12 12 12 12 12 11 11 11 10 10 10 9 9 9 9 8 8 8
14 14 14 14 14 14 14 14 14 14 14 14 13 13 13 13 13 13 13 12 12 12 12 12 12 11 11 11 11 11 11 10 10 10 9 9 9 9 9 8 8 8 7 7
13 13 13 13 13 13 13 13 13 13 13 13 13 12 12 12 12 12 11 11 11 11 11 11 10 10 10 10 10 10 9 9 9 9 9 8 8 8 8 8 7 7 7 7
12 12 12 12 12 12 12 12 12 12 12 12 12 12 11 11 11 11 11 11 10 10 10 10 10 10 9 9 9 9 8 8 8 8 8 8 7 7 7 7 7 6 6 6
12 12 11 11 11 11 11 11 11 11 11 11 11 11 10 10 10 10 9 9 9 9 9 9 9 9 8 8 8 8 8 7 7 7 7 7 7 6 6 6 6 6 5 5
11 11 11 11 10 10 10 10 10 10 10 10 10 10 9 9 9 9 9 9 8 8 8 8 8 8 8 7 7 7 7 7 7 6 6 6 6 6 5 5 5 5 5 4
10 10 10 10 9 9 9 9 9 9 9 9 9 8 8 8 8 8 8 8 8 8 7 7 7 7 7 6 6 6 6 6 6 6 6 5 5 5 5 4 4 4 4 4
9 9 9 9 9 8 8 8 8 8 8 8 8 7 7 7 7 7 7 7 7 7 7 6 6 6 6 6 6 5 5 5 5 5 5 5 4 4 4 4 4 3 3 3
8 8 8 8 8 8 8 7 7 7 7 7 7 7 7 7 7 6 6 6 6 6 6 6 5 5 5 5 5 5 4 4 4 4 4 4 4 3 3 3 3 3 3 3
Wind_Speed
6 6 6 7 8 9 10 9 8 6 3 3 6 6 8 8 8 8 9 10 10 9 9 9 9 8 7 7 7 7 7 6 5 5 6 5 5 4 3 2 1 2 3 3
8 7 7 8 9 10 11 10 9 8 6 2 3 5 7 9 9 9 9 10 10 10 9 10 10 9 8 8 8 8 7 6 5 4 5 5 5 4 3 2 1 2 2 3
7 6 7 9 9 10 9 9 8 7 4 2 3 3 4 7 9 8 9 9 10 10 10 10 10 10 9 9 8 8 7 6 6 6 5 5 5 5 4 3 2 1 1 1
7 7 8 4 1 2 4 5 5 4 2 1 2 4 4 5 6 7 8 8 9 9 9 9 8 9 9 9 8 8 7 6 6 6 6 5 5 4 4 3 3 3 2 2
6 8 7 4 1 2 3 3 3 3 2 1 2 4 4 4 4 5 7 7 7 7 8 8 8 8 9 9 8 8 7 7 7 7 7 6 6 5 4 3 3 3 3 3
7 8 7 1 3 3 1 3 1 1 2 2 3 3 2 3 5 5 5 5 6 6 7 7 7 8 8 9 8 8 8 7 7 7 7 7 6 5 4 4 3 3 3 3
9 9 6 1 4 1 2 2 4 4 4 2 2 2 2 5 5 5 5 5 6 6 6 6 7 8 8 7 7 7 7 7 7 7 7 6 6 5 4 4 4 4 4 4
8 9 4 3 2 1 4 5 6 5 4 3 2 2 4 5 5 5 5 5 6 5 5 5 6 7 7 6 6 6 7 7 6 6 6 6 6 5 5 4 4 4 4 4
2 0 4 3 4 5 5 5 6 5 4 2 1 1 3 4 5 5 5 5 5 5 5 5 5 6 6 5 6 6 7 7 6 6 5 5 6 6 5 4 4 4 4 4
3 1 2 3 3 3 4 4 5 4 3 2 0 1 3 3 4 4 5 5 5 5 5 5 5 6 5 5 6 6 7 7 6 6 6 6 4 5 4 4 4 4 4 4
4 3 1 1 2 3 3 3 3 3 3 3 1 1 1 3 4 4 5 5 5 5 5 5 5 6 6 6 6 6 6 6 6 6 6 5 5 5 5 5 5 5 4 3
3 2 2 2 4 5 3 3 3 3 3 3 1 1 1 2 4 4 4 5 5 5 5 5 5 6 6 6 6 6 5 5 4 4 4 4 5 4 6 6 8 9 7 6
3 3 3 3 3 3 3 3 3 2 2 2 1 0 1 2 3 4 4 5 5 5 5 5 5 5 5 6 6 6 5 4 4 4 4 4 5 5 4 5 7 8 9 9
2 2 2 2 3 3 3 3 3 2 2 2 1 1 1 1 2 4 4 4 4 4 5 5 5 5 5 5 5 5 5 5 5 4 4 4 4 4 5 5 5 5 8 11
2 2 2 2 3 3 4 3 2 2 1 1 1 0 1 2 2 3 3 3 3 4 4 4 5 5 4 5 5 5 4 3 4 4 4 4 4 4 4 5 5 4 3 5
1 1 1 1 2 2 3 3 3 2 1 1 0 0 1 1 2 2 3 3 4 4 4 4 4 4 4 4 4 4 4 5 4 3 3 4 4 4 4 4 4 4 4 4
1 1 1 1 2 2 3 3 3 2 2 1 1 0 0 1 2 2 2 2 3 2 3 3 3 3 3 4 4 3 3 4 6 4 4 4 3 4 3 4 4 4 4 4
1 1 1 2 2 2 2 3 3 3 2 2 1 1 1 1 2 2 1 1 1 1 1 2 2 2 2 3 2 2 3 3 4 4 4 3 3 3 3 3 4 4 3 3
0 1 1 2 2 2 2 2 3 3 2 2 2 2 2 1 1 1 1 1 2 2 1 2 1 1 1 1 1 2 3 3 3 3 3 4 4 4 4 4 4 3 3 3
1 2 1 2 2 2 3 3 3 3 2 2 2 2 2 1 1 0 1 1 1 1 1 1 1 0 0 0 1 2 2 2 3 3 3 3 3 3 3 3 4 4 4 4
1 1 1 1 2 2 2 2 2 2 3 2 1 1 1 1 1 0 0 1 0 1 1 0 0 0 0 1 2 2 2 2 3 3 3 3 3 3 3 4 4 4 4 4
0 0 1 1 1 1 2 2 2 3 3 2 2 1 1 1 1 1 1 0 0 1 0 0 0 1 2 3 2 2 2 3 3 2 3 3 3 3 4 4 4 4 4 4
0 0 0 1 1 2 2 2 2 2 2 2 2 2 1 1 0 0 1 1 1 1 1 1 1 2 4 3 2 2 3 3 3 3 3 3 3 3 3 4 4 4 4 4
1 1 1 1 1 2 2 2 3 3 3 2 2 2 1 1 1 1 1 1 1 1 1 1 1 3 4 3 3 2 3 2 2 2 2 2 2 2 3 4 4 4 4 5
1 2 2 2 2 1 2 2 2 2 2 2 2 2 2 1 1 1 1 0 0 1 1 1 2 3 3 3 2 2 2 2 2 2 2 2 2 3 4 4 4 4 4 4
1 1 2 2 2 2 2 2 2 2 2 2 2 2 2 2 2 1 0 0 0 1 1 1 2 2 2 2 2 2 2 2 3 2 3 3 3 3 4 4 5 4 4 4
1 1 1 1 2 2 2 2 2 2 2 2 2 3 3 2 2 1 1 1 1 1 2 2 2 2 2 2 2 2 2 3 3 3 3 3 4 4 4 5 4 4 4 4
Wind_Direction
256 247 227 229 227 230 242 254 269 284 282 187 174 168 155 151 152 159 164 167 169 170 169 169 174 178 172 166 163 166 170 181 184 171 155 153 143 145 146 127 130 111 106 98
264 250 243 245 237 235 240 251 260 269 277 242 171 152 154 157 159 166 171 174 172 175 174 178 180 180 173 168 170 170 174 177 169 157 144 145 147 151 142 133 113 93 87 88
274 264 258 253 239 229 235 242 248 256 255 182 165 158 160 158 161 169 174 174 176 180 181 185 185 180 175 173 169 171 170 168 162 158 151 154 159 152 151 153 143 121 117 112
277 273 264 263 228 212 239 256 257 267 256 198 161 145 140 149 162 170 171 172 177 181 181 181 180 174 169 165 168 170 167 165 162 161 158 157 158 162 171 166 162 165 184 170
269 269 266 270 257 198 224 263 271 262 223 146 123 127 125 140 152 161 166 169 174 177 172 171 174 171 165 166 169 170 169 169 165 163 162 162 167 170 171 172 173 177 187 178
261 269 272 275 76 62 341 266 0 77 98 109 135 166 155 138 140 144 144 152 160 165 166 169 170 162 166 171 172 173 169 168 164 164 165 169 173 174 172 174 183 181 190 192
251 261 268 17 110 151 256 25 56 60 60 72 98 93 114 116 118 129 132 138 145 156 166 167 162 159 169 172 175 166 158 159 160 161 166 170 173 174 172 178 185 197 202 201
237 250 256 77 133 77 39 32 36 48 48 52 61 59 102 116 123 129 129 133 142 153 156 153 153 157 168 173 164 149 149 153 161 164 172 177 171 177 182 186 192 204 211 219
265 108 94 76 46 39 29 15 24 30 23 24 18 53 117 130 136 140 143 144 147 148 146 149 154 159 170 165 149 146 150 158 164 167 169 169 174 182 189 192 196 209 211 220
264 232 90 84 69 40 24 15 17 12 356 336 333 112 124 142 144 147 151 152 153 154 161 168 166 164 167 154 150 157 166 170 175 179 178 180 181 184 190 198 206 215 216 222
257 268 302 87 53 33 25 9 7 357 345 337 332 155 151 163 158 157 160 159 164 171 172 175 169 169 166 161 163 173 180 179 182 184 184 183 183 191 195 199 199 205 217 216
261 300 298 34 41 31 12 353 346 348 343 337 331 218 185 173 157 157 165 166 171 171 172 181 177 173 171 170 174 185 192 189 187 183 181 183 186 201 211 208 206 209 211 215
300 348 359 8 21 3 339 332 326 326 317 307 302 197 176 161 152 159 170 178 182 177 176 183 181 179 177 179 185 192 192 186 183 186 188 195 196 200 214 229 229 231 230 229
25 12 333 350 355 341 326 324 323 328 336 344 357 61 142 153 154 166 178 185 180 175 177 180 177 182 180 181 187 195 195 193 189 188 193 203 208 209 209 212 223 237 236 234
347 344 331 351 351 337 329 321 312 314 353 2 9 9 177 173 180 182 175 173 174 181 183 180 179 182 177 183 191 197 197 194 194 191 198 208 213 218 223 225 225 223 218 228
317 353 335 302 298 305 310 309 302 305 324 331 327 275 236 181 175 181 177 174 183 194 190 184 187 181 175 181 188 197 203 206 199 197 208 217 218 222 226 230 235 232 226 219
214 218 237 267 287 300 300 303 309 313 322 333 315 268 235 176 170 180 190 185 193 201 181 174 177 176 180 181 187 197 200 202 204 213 219 223 227 229 233 234 237 241 241 224
243 255 262 288 299 296 308 323 328 329 333 331 332 329 274 227 210 197 195 191 185 189 176 160 159 181 185 181 189 200 210 212 212 218 218 219 227 235 241 246 248 250 253 239
346 325 331 340 339 337 336 343 334 329 334 340 322 294 280 267 242 223 210 200 199 203 174 107 114 173 179 176 208 221 224 221 225 231 226 225 228 232 236 243 248 249 250 249
36 21 22 9 359 2 0 359 352 345 346 343 330 323 318 317 316 269 225 237 240 217 126 125 185 216 217 258 273 258 251 242 235 237 237 230 232 238 244 251 254 257 258 254
46 17 14 4 4 6 358 353 359 359 357 360 354 330 318 320 324 319 168 269 328 62 83 138 232 174 130 298 280 272 259 255 252 249 243 244 249 252 254 257 258 258 262 265
311 12 1 351 354 356 0 8 14 8 4 2 357 1 6 5 25 22 353 283 66 69 12 245 46 19 334 310 280 272 265 261 259 256 249 247 253 260 264 265 264 262 259 263
237 271 334 327 337 349 360 6 11 12 9 2 355 358 4 358 8 310 308 350 76 35 1 335 307 304 304 289 270 270 268 265 264 260 254 254 258 262 266 272 272 271 268 269
352 356 344 340 348 345 348 3 11 8 8 5 360 353 351 356 358 11 32 70 40 347 336 268 281 295 298 286 275 272 273 271 268 269 274 278 286 295 294 287 281 280 281 284
325 329 333 345 336 341 351 357 355 353 349 348 343 347 350 358 337 348 20 51 13 313 283 260 286 288 283 286 292 298 300 288 282 281 275 274 273 275 276 277 276 277 275 274
317 326 335 327 334 349 346 342 336 334 335 340 345 356 1 358 358 2 15 329 281 302 295 265 255 261 278 295 303 298 291 285 285 276 268 272 276 276 274 274 277 273 272 272
299 310 321 320 334 344 347 341 335 333 338 336 340 346 347 347 351 349 336 311 290 278 279 273 271 275 282 287 290 290 288 285 283 280 278 276 275 275 276 279 278 276 277 277
Height
1492 1489 1489 1492 1493 1494 1498 1499 1504 1500 1497 1494 1493 1495 1498 1502 1506 1510 1513 1517 1520 1522 1526 1528 1531 1534 1536 1537 1538 1540 1541 1542 1543 1545 1546 1547 1548 1549 1550 1551 1552 1553 1554 1555
1491 1485 1486 1489 1488 1490 1492 1492 1494 1494 1494 1488 1490 1493 1497 1500 1504 1508 1511 1514 1517 1520 1523 1526 1528 1531 1533 1534 1536 1537 1539 1540 1541 1543 1544 1545 1547 1548 1549 1550 1551 1552 1553 1553
1495 1487 1488 1494 1484 1484 1486 1485 1488 1493 1490 1486 1489 1492 1495 1498 1501 1505 1508 1511 1514 1517 1520 1522 1525 1528 1530 1531 1533 1535 1536 1538 1539 1541 1542 1543 1545 1546 1547 1548 1549 1550 1551 1552
1494 1494 1506 1487 1473 1476 1480 1481 1481 1482 1484 1485 1488 1491 1494 1497 1500 1503 1506 1508 1511 1514 1517 1520 1523 1525 1527 1529 1531 1533 1534 1536 1537 1538 1540 1541 1543 1544 1545 1546 1547 1548 1549 1549
1495 1500 1494 1482 1474 1475 1481 1483 1480 1481 1482 1485 1487 1490 1493 1496 1498 1500 1503 1506 1509 1512 1515 1517 1520 1522 1525 1526 1528 1530 1532 1533 1535 1536 1537 1539 1540 1542 1543 1544 1545 1546 1546 1547
1494 1501 1502 1485 1475 1475 1480 1487 1480 1480 1482 1484 1487 1492 1495 1495 1496 1499 1501 1504 1506 1509 1512 1515 1517 1520 1522 1524 1526 1527 1529 1531 1532 1533 1535 1536 1538 1539 1540 1541 1542 1543 1543 1544
1494 1496 1488 1477 1476 1477 1491 1490 1481 1481 1483 1485 1487 1490 1493 1493 1495 1497 1499 1502 1504 1507 1510 1512 1515 1517 1519 1521 1523 1524 1527 1528 1530 1531 1532 1533 1535 1536 1537 1538 1539 1540 1540 1541
1487 1493 1492 1477 1477 1481 1484 1482 1482 1483 1485 1486 1488 1490 1491 1492 1494 1496 1498 1500 1502 1505 1507 1510 1512 1514 1516 1518 1520 1522 1524 1525 1526 1528 1529 1530 1532 1533 1534 1535 1536 1537 1537 1537
1479 1483 1479 1478 1479 1481 1482 1483 1484 1485 1486 1487 1488 1489 1490 1492 1493 1495 1497 1498 1500 1503 1505 1507 1509 1511 1513 1515 1518 1519 1520 1522 1523 1525 1526 1527 1528 1529 1531 1532 1532 1533 1533 1533
1475 1475 1476 1478 1480 1481 1482 1483 1484 1485 1486 1487 1488 1488 1490 1491 1492 1494 1495 1497 1499 1501 1503 1505 1507 1509 1511 1513 1514 1516 1517 1518 1520 1521 1522 1523 1525 1526 1526 1527 1528 1528 1529 1529
1474 1475 1476 1478 1479 1481 1482 1483 1484 1484 1485 1486 1487 1487 1488 1490 1491 1492 1493 1495 1496 1498 1500 1502 1504 1506 1508 1510 1511 1512 1514 1515 1516 1517 1518 1519 1520 1521 1522 1523 1524 1524 1524 1525
1476 1476 1476 1478 1479 1480 1481 1482 1483 1483 1484 1485 1485 1486 1487 1488 1489 1490 1492 1493 1494 1496 1498 1499 1501 1503 1505 1506 1508 1509 1510 1511 1512 1513 1514 1515 1516 1517 1518 1519 1519 1520 1520 1520
1473 1474 1476 1477 1478 1480 1480 1481 1482 1482 1483 1483 1483 1484 1485 1486 1487 1488 1490 1491 1492 1493 1495 1497 1498 1500 1501 1503 1504 1506 1507 1508 1509 1510 1510 1511 1512 1512 1513 1514 1514 1514 1515 1515
1472 1473 1475 1476 1478 1478 1479 1480 1480 1480 1481 1481 1482 1482 1483 1484 1485 1486 1487 1489 1490 1491 1492 1494 1495 1496 1498 1499 1501 1502 1503 1504 1505 1505 1506 1507 1507 1507 1508 1508 1508 1508 1509 1509
1471 1472 1474 1475 1476 1477 1477 1478 1478 1479 1479 1479 1480 1480 1481 1482 1482 1483 1485 1486 1487 1488 1489 1490 1492 1493 1494 1496 1497 1498 1499 1500 1501 1501 1502 1502 1503 1503 1503 1503 1503 1502 1502 1503
1469 1471 1472 1473 1474 1475 1476 1476 1477 1477 1477 1477 1478 1478 1479 1479 1480 1481 1482 1483 1484 1485 1486 1487 1488 1489 1490 1492 1493 1494 1494 1495 1496 1496 1497 1497 1498 1498 1498 1498 1497 1497 1497 1496
1468 1469 1470 1471 1472 1473 1474 1474 1474 1475 1475 1475 1475 1476 1476 1477 1477 1478 1479 1480 1481 1482 1483 1483 1484 1485 1486 1487 1488 1489 1490 1490 1491 1492 1492 1492 1492 1493 1493 1493 1492 1492 1491 1491
1466 1467 1468 1469 1470 1471 1471 1471 1472 1472 1472 1472 1473 1473 1473 1474 1474 1475 1476 1477 1478 1479 1480 1480 1481 1482 1482 1483 1484 1485 1485 1485 1486 1486 1487 1487 1487 1487 1487 1487 1486 1486 1485 1485
1463 1464 1466 1467 1468 1468 1468 1469 1469 1469 1470 1470 1470 1470 1471 1471 1472 1472 1473 1474 1474 1475 1475 1476 1477 1478 1478 1479 1479 1480 1480 1480 1480 1481 1481 1481 1481 1481 1481 1481 1480 1480 1479 1478
1461 1463 1464 1465 1465 1466 1466 1466 1467 1467 1467 1467 1467 1468 1468 1469 1469 1469 1470 1470 1470 1471 1472 1472 1473 1473 1474 1474 1475 1475 1475 1475 1475 1475 1475 1476 1476 1476 1475 1475 1474 1474 1473 1473
1460 1461 1462 1462 1463 1464 1464 1464 1464 1464 1464 1464 1464 1464 1465 1465 1466 1466 1466 1466 1467 1468 1468 1468 1469 1469 1469 1470 1470 1470 1470 1470 1470 1470 1470 1470 1470 1470 1469 1469 1468 1468 1467 1467
1459 1459 1460 1461 1461 1462 1462 1462 1462 1462 1462 1462 1462 1462 1462 1462 1463 1463 1463 1464 1464 1464 1464 1464 1464 1465 1465 1465 1465 1465 1465 1465 1465 1465 1465 1464 1464 1464 1463 1463 1462 1462 1461 1460
1457 1458 1458 1459 1459 1460 1460 1460 1460 1460 1460 1460 1460 1459 1459 1459 1460 1460 1460 1460 1460 1460 1460 1460 1460 1460 1460 1460 1460 1460 1460 1460 1460 1459 1459 1459 1458 1458 1457 1457 1456 1455 1455 1454
1456 1456 1457 1457 1458 1458 1458 1458 1458 1458 1458 1457 1457 1457 1457 1457 1457 1457 1457 1457 1457 1457 1456 1456 1456 1456 1456 1455 1455 1455 1455 1455 1454 1454 1454 1453 1453 1452 1452 1451 1450 1449 1448 1447
1454 1454 1455 1455 1456 1456 1456 1456 1456 1456 1455 1455 1455 1455 1455 1455 1455 1454 1454 1454 1454 1453 1453 1453 1453 1452 1452 1451 1451 1451 1450 1450 1449 1449 1448 1448 1447 1447 1446 1445 1444 1443 1442 1441
1452 1452 1453 1453 1454 1454 1454 1454 1454 1453 1453 1453 1452 1452 1452 1452 1452 1451 1451 1451 1450 1450 1450 1449 1449 1448 1448 1447 1447 1446 1446 1445 1445 1444 1444 1443 1442 1441 1440 1439 1438 1437 1436 1434
1450 1450 1451 1451 1451 1452 1452 1451 1451 1451 1451 1450 1450 1449 1449 1449 1448 1448 1448 1447 1447 1447 1446 1446 1445 1445 1444 1443 1443 1442 1441 1441 1440 1440 1439 1438 1437 1436 1435 1434 1432 1431 1429 1428